Home > Weather > Riesa > Past weeks

Flag for Germany Weather for the Past 2 Weeks in Riesa, Saxony, Germany

Now
54 °F

Scattered clouds.


Feels Like: 53 °F
Forecast: 45 / 70 °F
Wind: 5 mph from Northeast

Location: Dresden-Klotzsche

Current Time: May 5, 2016 at 1:26:50 PM

Latest Report: May 5, 2016 at 12:50 PM


Visibility: N/A

Pressure: 30.33 "Hg

Humidity: 67%

Dew Point: 43 °F

Location of RiesaLocation

Historic Weather in Riesa — Graph

°F

Riesa Temperature Yesterday

Maximum temperature yesterday: 48 °F (at 12:20 AM)
Minimum temperature yesterday: 43 °F (at 7:20 AM)
Average temperature yesterday: 46 °F

High & Low Weather Summary for the Past Weeks

 TemperatureHumidityPressure
High64 °F (Apr 30, 3:20 PM)100% (May 3, 4:20 AM)30.39 "Hg (May 3, 4:20 AM)
Low32 °F (Apr 24, 5:50 AM)25% (Apr 30, 2:20 PM)29.47 "Hg (Apr 26, 7:50 AM)
Average46 °F67%30.00 "Hg
* Reported Apr 20 12:20 PM — May 5 12:20 PM, Riesa, Weather by CustomWeather, © 2016

Note: Actual official high and low records may vary slightly from our data, if they occured in-between our weather recording intervals... More about our weather records

Advertising

Riesa Weather History for the Previous 24 Hours

Scroll right to see more
 ConditionsComfort  
Time TempWeatherWind HumidityBarometerVisibility
12:20 PM
Thu, May 5
52 °FPartly sunny.2 mph72%30.36 "HgN/A
11:50 AM50 °FPartly sunny.5 mph71%30.36 "HgN/A
11:20 AM50 °FPartly sunny.2 mph76%30.36 "HgN/A
10:50 AM50 °FBroken clouds.1 mph76%30.36 "HgN/A
10:20 AM48 °FPartly sunny.1 mph82%30.36 "HgN/A
9:50 AM48 °FPartly sunny.1 mph87%30.36 "HgN/A
9:20 AM46 °FSunny.1 mph87%30.36 "Hg10 mi
8:50 AM46 °FSunny.2 mph87%30.36 "Hg10 mi
8:20 AM45 °FSunny.1 mph93%30.36 "Hg10 mi
7:50 AM45 °FSunny.1 mph100%30.36 "Hg10 mi
7:20 AM43 °FFog.1 mph100%30.36 "HgN/A
6:50 AM43 °FFog.2 mph100%30.36 "HgN/A
6:20 AM43 °FFog.1 mph93%30.36 "HgN/A
5:50 AM41 °FFog.2 mph100%30.36 "HgN/A
5:20 AM39 °FFog.1 mph100%30.36 "HgN/A
4:50 AM43 °FFog.No wind93%30.36 "HgN/A
4:20 AM43 °FFog.1 mph93%30.36 "HgN/A
3:50 AM43 °FClear.1 mph93%30.36 "Hg10 mi
3:20 AM45 °FClear.2 mph93%30.36 "Hg10 mi
2:50 AM45 °FClear.2 mph93%30.36 "Hg10 mi
2:20 AM45 °FClear.5 mph93%30.36 "Hg10 mi
1:50 AM46 °FPassing clouds.3 mph87%30.36 "HgN/A
1:20 AM46 °FClear.3 mph87%30.36 "Hg10 mi
12:50 AM46 °FClear.5 mph87%30.36 "Hg10 mi
12:20 AM46 °FClear.1 mph87%30.36 "Hg10 mi
11:50 PM
Wed, May 4
46 °FClear.No wind87%30.36 "Hg10 mi
11:20 PM46 °FClear.No wind87%30.36 "Hg10 mi
10:50 PM46 °FClear.2 mph87%30.36 "Hg10 mi
10:20 PM46 °FClear.3 mph87%30.36 "Hg10 mi
9:50 PM46 °FClear.5 mph87%30.36 "Hg10 mi
9:20 PM46 °FPartly sunny.3 mph93%30.33 "HgN/A
8:50 PM46 °FLight rain. Broken clouds.3 mph87%30.33 "HgN/A
8:20 PM46 °FLight rain. Broken clouds.3 mph87%30.33 "HgN/A
7:50 PM46 °FPartly sunny.2 mph87%30.33 "HgN/A
7:20 PM46 °FBroken clouds.7 mph87%30.33 "HgN/A
6:50 PM46 °FBroken clouds.7 mph87%30.33 "HgN/A
6:20 PM46 °FPartly sunny.8 mph87%30.33 "HgN/A
5:50 PM46 °FLight rain. Broken clouds.7 mph87%30.33 "HgN/A
5:20 PM46 °FLight rain. Partly sunny.7 mph87%30.33 "HgN/A
4:50 PM46 °FLight rain. Partly sunny.8 mph93%30.33 "HgN/A
4:20 PM46 °FLight rain. Partly sunny.7 mph93%30.33 "HgN/A
3:50 PM46 °FLight rain. Partly sunny.7 mph87%30.36 "HgN/A
3:20 PM45 °FLight rain. Partly sunny.8 mph93%30.33 "Hg6 mi
2:50 PM46 °FLight rain. Broken clouds.9 mph87%30.33 "HgN/A
2:20 PM46 °FLight rain. Broken clouds.9 mph87%30.33 "Hg4 mi
1:50 PM45 °FLight rain. Partly sunny.7 mph100%30.33 "Hg4 mi
1:20 PM45 °FLight rain. Mostly cloudy.9 mph93%30.33 "Hg4 mi
Weather by CustomWeather, © 2016

See weather overviewHow to use our weather pages